sat.trackr.live / text

‹ back to catalog

STARLINK-37291

NORAD 68560 · 2026-070U

PAYLOAD ACTIVE UNKNOWN

§ Identity

Operator
Country
US
Launch date
2026-04-02
Launch site
AFETR
Launch vehicle
Mass (kg)
RCS (m²)

Purposes: comms

External: N2YO · Heavens-Above · Gunter

§ Orbital elements

Epoch: 2026-05-25T04:00:03.998880Z

Period
93.85 min
Inclination
53.1586°
Eccentricity
0.0001075
Mean motion
15.34385485 rev/d
Perigee alt
462.0 km
Apogee alt
463.5 km
Semi-major
6,840.9 km
B*
2.9779e-4
RAAN
6.7161°
Arg perigee
81.7390°
Mean anomaly
245.9100°
Rev number
601

§ Raw data

STARLINK-372911 68560U 26070U   26145.16671295  .00009694  00000+0  29779-3 0  99992 68560  53.1586   6.7161 0001075  81.7390 245.9100 15.34385485  6011

JSON: /api/v1/satellites/68560 · /tle

For live sub-satellite position, see the globe view (requires WebGL).

§ Visibility from observer

Set your observer location to see the next 7 days of passes ≥ 10°. The values pass through the URL so the page stays shareable.

No JS? Fill the form by hand. The geolocation button needs JavaScript.